Погода в Ксеньевке

Россия / Забайкальский край     53°33′30″N   118°43′27″E
темп.,
°C
ветер,
м/с
пор.,
м/с
влажн.,
%
обл.,
%
осадки,
мм/ч
давл.,
гПа
погр.,
м
8 марта, пн
пн800:00−16ю239210 0.0 102131
03:00−16ю239419 0.0 101936
06:00−16ююз229776 0.0 101739
09:00−14ююз349588 0.0 1015152
12:00−8ююз3589100 0.0 1011337
15:00−1з6136386 0.1 10092447
18:00−5зсз51172100 0.8 1009896
21:00−12сз238187 0.8 101328
9 марта, вт
вт900:00−15зсз22830 0.0 101738
03:00−18ссз228411 0.0 102322
06:00−20ссз22860 0.0 102621
09:00−17сз11830 0.0 102934
12:00−9юз22710 0.0 1027331
15:00−7юз36704 0.0 1024821
18:00−9ююз397778 0.0 1022490
21:00−13ююз358472 0.0 1022116
10 марта, ср
ср1000:00−13ююз2491100 0.0 1020119
03:00−15юз1294100 0.0 101827
06:00−16юз1195100 0.0 101820
09:00−14зюз119576 0.0 101954
12:00−4зсз487226 0.0 10181044
15:00−4сз466313 0.0 10201466
18:00−6зсз26780 0.0 1022180
21:00−12юз11800 0.0 102521
11 марта, чт
чт1100:00−14ююз12860 0.0 102720
03:00−15ююз12900 0.0 102720
06:00−16ююз12940 0.0 102720
09:00−14зюз11940 0.0 102743
12:00−6зюз118111 0.0 1025302
15:00−3зюз118236 0.0 1024394
18:00−4юз11890 0.0 102323
21:00−9ю12940 0.0 102621
12 марта, пт
пт1200:00−10ю229721 0.0 102628
03:00−12ююз239845 0.0 102541
06:00−13ююз239879 0.0 102555
09:00−9ююз359475 0.0 1024191
12:00−3ююз398528 0.0 1020459
15:00−1ююз5128215 0.0 1017732
18:00−1юз4147917 0.0 1015747
21:00−5ююз498458 0.0 1015296